Location: Overspoor
(51.4747°N, 5.6641°E)
Time: 04:30:17
(UTC+02:00)

DUCHIFAT 1 - Pass Details

Date: 09 July 2022
Orbit: 580 x 596 km, 98.0° (Epoch: 09 August)

Event Time Altitude Azimuth Distance (km) Brightness Sun altitude
Rises 03:47:38 0° 20° (NNE) 2,852 ? -11.2°
Reaches altitude 10° 03:49:56 10° 28° (NNE) 1,946 ? -11.0°
Maximum altitude 03:53:53 38° 98° (E) 921 ? -10.7°
Drops below altitude 10° 03:57:49 10° 167° (SSE) 1,933 ? -10.4°
Enters shadow 03:58:31 - 170° (S) 2,204 ? -10.4°
